Time,TemperatureF,DewpointF,PressureIn,WindDirection,WindDirectionDegrees,WindSpeedMPH,WindSpeedGustMPH,Humidity,HourlyPrecipIn,Conditions,Clouds,dailyrainin,SolarRadiationWatts/m^2,SoftwareType,DateUTC
2013-05-18 00:04:00,64.4,59.1,29.75,SE,128,5.0,10.0,83,0.00,,BKN100,0.00,0.00,VWS V14.00,2013-05-18 05:04:00,
2013-05-18 00:09:00,64.2,59.3,29.77,South,190,22.0,23.0,84,0.00,,BKN100,0.00,0.00,VWS V14.00,2013-05-18 05:09:00,
2013-05-18 00:14:00,63.8,57.5,29.78,SW,223,20.0,24.0,80,0.00,,BKN100,0.00,0.00,VWS V14.00,2013-05-18 05:14:00,
2013-05-18 00:19:00,62.6,57.0,29.78,WSW,248,11.0,24.0,82,0.00,,BKN100,0.00,0.00,VWS V14.00,2013-05-18 05:19:00,
2013-05-18 00:24:00,61.5,57.0,29.79,SW,234,18.0,24.0,85,0.00,,BKN100,0.00,0.00,VWS V14.00,2013-05-18 05:24:00,
2013-05-18 00:29:00,60.5,56.6,29.78,WSW,239,22.0,25.0,87,0.01,,BKN100,0.01,0.00,VWS V14.00,2013-05-18 05:29:00,
2013-05-18 00:35:00,59.7,56.5,29.78,SW,227,19.0,28.0,89,0.02,,BKN100,0.02,0.00,VWS V14.00,2013-05-18 05:35:00,
2013-05-18 00:40:00,59.3,56.4,29.78,SW,233,18.0,28.0,90,0.05,,BKN100,0.05,0.00,VWS V14.00,2013-05-18 05:40:00,
2013-05-18 00:45:00,58.9,56.3,29.78,WSW,237,19.0,28.0,91,0.08,,,0.08,0.00,VWS V14.00,2013-05-18 05:45:00,
2013-05-18 00:50:00,58.7,56.1,29.77,SW,235,15.0,28.0,91,0.17,,,0.17,0.00,VWS V14.00,2013-05-18 05:50:00,
2013-05-18 00:55:00,58.9,56.3,29.77,WSW,246,9.0,28.0,91,0.22,,,0.22,0.00,VWS V14.00,2013-05-18 05:55:00,
2013-05-18 01:00:00,58.9,56.3,29.76,West,263,8.0,28.0,91,0.24,,,0.24,0.00,VWS V14.00,2013-05-18 06:00:00,
2013-05-18 01:05:00,59.0,56.1,29.77,West,281,8.0,14.0,90,0.25,,OVC055,0.25,0.00,VWS V14.00,2013-05-18 06:05:00,
2013-05-18 01:10:00,59.0,56.1,29.77,West,281,6.0,14.0,90,0.25,,OVC055,0.25,0.00,VWS V14.00,2013-05-18 06:10:00,
2013-05-18 01:15:00,59.1,56.2,29.76,West,278,7.0,14.0,90,0.26,,OVC055,0.26,0.00,VWS V14.00,2013-05-18 06:15:00,
2013-05-18 01:20:00,59.3,56.4,29.75,NW,310,11.0,14.0,90,0.27,,OVC055,0.27,0.00,VWS V14.00,2013-05-18 06:20:00,
2013-05-18 01:25:00,59.5,56.3,29.75,WNW,303,11.0,14.0,89,0.28,,OVC055,0.28,0.00,VWS V14.00,2013-05-18 06:25:00,
2013-05-18 01:30:00,59.6,56.4,29.74,NW,321,9.0,14.0,89,0.29,,OVC055,0.29,0.00,VWS V14.00,2013-05-18 06:30:00,
2013-05-18 01:35:00,59.5,56.0,29.73,NNW,331,9.0,14.0,88,0.29,,OVC055,0.30,0.00,VWS V14.00,2013-05-18 06:35:00,
2013-05-18 01:40:00,59.6,55.7,29.73,NW,324,12.0,16.0,87,0.29,,OVC055,0.30,0.00,VWS V14.00,2013-05-18 06:40:00,
2013-05-18 01:45:00,60.7,55.5,29.74,NW,315,10.0,16.0,83,0.29,,-RA,0.30,0.00,VWS V14.00,2013-05-18 06:45:00,
2013-05-18 01:50:00,61.0,55.1,29.74,NW,309,9.0,16.0,81,0.29,,-RA,0.30,0.00,VWS V14.00,2013-05-18 06:50:00,
2013-05-18 01:55:00,61.2,55.0,29.74,NW,321,9.0,16.0,80,0.29,,-RA,0.30,0.00,VWS V14.00,2013-05-18 06:55:00,
2013-05-18 02:00:00,60.7,55.2,29.74,NNW,334,9.0,16.0,82,0.29,,-RA,0.30,0.00,VWS V14.00,2013-05-18 07:00:00,
2013-05-18 02:05:00,60.4,55.2,29.73,NNW,340,7.0,12.0,83,0.06,,-RA,0.30,0.00,VWS V14.00,2013-05-18 07:05:00,
2013-05-18 02:10:00,60.3,55.1,29.76,West,276,9.0,12.0,83,0.06,,-RA,0.30,0.00,VWS V14.00,2013-05-18 07:10:00,
2013-05-18 02:15:00,60.3,55.1,29.78,SW,214,11.0,16.0,83,0.08,,-RA,0.32,0.00,VWS V14.00,2013-05-18 07:15:00,
2013-05-18 02:20:00,59.7,55.5,29.77,WSW,241,8.0,16.0,86,0.23,,-RA,0.47,0.00,VWS V14.00,2013-05-18 07:20:00,
2013-05-18 02:25:00,59.2,55.7,29.78,WSW,252,2.0,16.0,88,0.24,,-RA,0.48,0.00,VWS V14.00,2013-05-18 07:25:00,
2013-05-18 02:30:00,58.8,55.6,29.77,WSW,252,7.0,16.0,89,0.24,,-RA,0.48,0.00,VWS V14.00,2013-05-18 07:30:00,
2013-05-18 02:35:00,58.6,55.7,29.77,West,259,4.0,8.0,90,0.19,,-RA,0.48,0.00,VWS V14.00,2013-05-18 07:35:00,
2013-05-18 02:40:00,58.3,55.7,29.77,West,259,5.0,8.0,91,0.20,,-RA,0.49,0.00,VWS V14.00,2013-05-18 07:40:00,
2013-05-18 02:45:00,58.1,55.8,29.77,West,261,7.0,8.0,92,0.21,,-RA,0.50,0.00,VWS V14.00,2013-05-18 07:45:00,
2013-05-18 02:50:00,58.0,56.0,29.76,West,281,8.0,9.0,93,0.23,,-RA,0.52,0.00,VWS V14.00,2013-05-18 07:50:00,
2013-05-18 02:55:00,57.9,55.9,29.76,WNW,286,11.0,15.0,93,0.24,,-RA,0.53,0.00,VWS V14.00,2013-05-18 07:55:00,
2013-05-18 03:00:00,57.9,55.9,29.77,West,281,12.0,12.0,93,0.24,,-RA,0.54,0.00,VWS V14.00,2013-05-18 08:00:00,
2013-05-18 03:05:00,58.1,56.1,29.80,South,171,13.0,13.0,93,0.24,,-RA,0.54,0.00,VWS V14.00,2013-05-18 08:05:00,
2013-05-18 03:10:00,58.2,56.2,29.81,SSE,167,9.0,15.0,93,0.26,,-RA,0.56,0.00,VWS V14.00,2013-05-18 08:10:00,
2013-05-18 03:15:00,58.2,56.2,29.80,South,172,2.0,15.0,93,0.30,,-RA,0.60,0.00,VWS V14.00,2013-05-18 08:15:00,
2013-05-18 03:20:00,58.1,56.1,29.78,WSW,247,7.0,15.0,93,0.36,,-RA,0.66,0.00,VWS V14.00,2013-05-18 08:20:00,
2013-05-18 03:25:00,58.1,56.1,29.78,WSW,251,5.0,15.0,93,0.38,,-RA,0.68,0.00,VWS V14.00,2013-05-18 08:25:00,
2013-05-18 03:30:00,58.0,56.0,29.78,WSW,251,2.0,2.0,93,0.21,,-RA,0.69,0.00,VWS V14.00,2013-05-18 08:30:00,
2013-05-18 03:35:00,58.0,56.0,29.77,WSW,251,3.0,4.0,93,0.22,,-RA,0.70,0.00,VWS V14.00,2013-05-18 08:35:00,
2013-05-18 03:41:00,57.9,56.2,29.76,SE,142,7.0,7.0,94,0.23,,-RA,0.71,0.00,VWS V14.00,2013-05-18 08:41:00,
2013-05-18 03:46:00,57.8,56.1,29.74,ENE,78,11.0,13.0,94,0.25,,-RA,0.73,0.00,VWS V14.00,2013-05-18 08:46:00,
2013-05-18 03:51:00,57.6,55.9,29.71,ENE,78,12.0,16.0,94,0.26,,RA,0.74,0.00,VWS V14.00,2013-05-18 08:51:00,
2013-05-18 03:56:00,57.5,55.8,29.67,East,86,19.0,23.0,94,0.26,,RA,0.74,0.00,VWS V14.00,2013-05-18 08:56:00,
2013-05-18 04:01:00,57.5,56.1,29.70,ENE,72,12.0,12.0,95,0.20,,RA,0.74,0.00,VWS V14.00,2013-05-18 09:01:00,
2013-05-18 04:06:00,57.5,56.1,29.71,ENE,69,8.0,15.0,95,0.20,,RA,0.74,0.00,VWS V14.00,2013-05-18 09:06:00,
2013-05-18 04:11:00,57.5,56.1,29.71,East,86,9.0,15.0,95,0.20,,RA,0.74,0.00,VWS V14.00,2013-05-18 09:11:00,
2013-05-18 04:16:00,57.4,55.7,29.71,East,96,11.0,15.0,94,0.20,,RA,0.74,0.00,VWS V14.00,2013-05-18 09:16:00,
2013-05-18 04:21:00,57.2,55.5,29.70,ESE,109,12.0,15.0,94,0.20,,RA,0.74,0.00,VWS V14.00,2013-05-18 09:21:00,
2013-05-18 04:26:00,57.1,55.7,29.68,East,96,16.0,17.0,95,0.20,,RA,0.74,0.00,VWS V14.00,2013-05-18 09:26:00,
2013-05-18 04:31:00,57.0,55.6,29.68,ESE,113,15.0,17.0,95,0.05,,RA,0.74,0.00,VWS V14.00,2013-05-18 09:31:00,
2013-05-18 04:36:00,56.8,55.4,29.68,East,94,14.0,17.0,95,0.05,,RA,0.74,0.00,VWS V14.00,2013-05-18 09:36:00,
2013-05-18 04:41:00,56.7,55.3,29.67,East,92,11.0,17.0,95,0.05,,RA,0.74,0.00,VWS V14.00,2013-05-18 09:41:00,
2013-05-18 04:46:00,56.7,55.3,29.68,ESE,103,11.0,17.0,95,0.05,,RA,0.74,0.00,VWS V14.00,2013-05-18 09:46:00,
2013-05-18 04:51:00,56.6,55.2,29.68,ESE,106,12.0,17.0,95,0.05,,-RA,0.74,0.00,VWS V14.00,2013-05-18 09:51:00,
2013-05-18 04:56:00,56.5,55.1,29.68,ESE,114,9.0,17.0,95,0.05,,-RA,0.74,0.00,VWS V14.00,2013-05-18 09:56:00,
2013-05-18 05:01:00,56.5,55.1,29.68,ESE,120,5.0,9.0,95,0.00,,-RA,0.74,0.00,VWS V14.00,2013-05-18 10:01:00,
2013-05-18 05:06:00,56.4,55.0,29.68,ESE,105,3.0,9.0,95,0.00,,-RA,0.74,0.00,VWS V14.00,2013-05-18 10:06:00,
2013-05-18 05:11:00,56.4,55.0,29.68,East,89,5.0,9.0,95,0.00,,-RA,0.74,0.00,VWS V14.00,2013-05-18 10:11:00,
2013-05-18 05:16:00,56.3,54.9,29.68,ENE,75,5.0,9.0,95,0.00,,-RA,0.74,0.00,VWS V14.00,2013-05-18 10:16:00,
2013-05-18 05:21:00,56.0,54.6,29.69,ENE,73,2.0,9.0,95,0.00,,-RA,0.74,0.00,VWS V14.00,2013-05-18 10:21:00,
2013-05-18 05:26:00,56.0,54.6,29.70,ENE,73,2.0,9.0,95,0.00,,-RA,0.74,0.00,VWS V14.00,2013-05-18 10:26:00,
2013-05-18 05:31:00,55.7,54.3,29.72,ENE,73,4.0,5.0,95,0.00,,-RA,0.74,0.00,VWS V14.00,2013-05-18 10:31:00,
2013-05-18 05:36:00,55.5,54.1,29.73,NNE,23,4.0,7.0,95,0.00,,-RA,0.74,0.00,VWS V14.00,2013-05-18 10:36:00,
2013-05-18 05:41:00,55.5,54.1,29.73,NNE,23,5.0,7.0,95,0.00,,-RA,0.74,0.00,VWS V14.00,2013-05-18 10:41:00,
2013-05-18 05:46:00,55.2,53.8,29.74,North,5,8.0,9.0,95,0.00,,-RA,0.74,0.00,VWS V14.00,2013-05-18 10:46:00,
2013-05-18 05:51:00,55.2,53.8,29.74,North,355,6.0,10.0,95,0.00,,CLR,0.74,0.00,VWS V14.00,2013-05-18 10:51:00,
2013-05-18 05:56:00,55.0,53.6,29.76,North,355,5.0,10.0,95,0.00,,CLR,0.74,0.00,VWS V14.00,2013-05-18 10:56:00,
2013-05-18 06:01:00,54.9,53.8,29.76,North,355,3.0,4.0,96,0.00,,CLR,0.74,0.00,VWS V14.00,2013-05-18 11:01:00,
2013-05-18 06:06:00,55.0,53.9,29.76,North,355,1.0,4.0,96,0.00,,CLR,0.74,0.00,VWS V14.00,2013-05-18 11:06:00,
2013-05-18 06:11:00,55.0,53.9,29.76,North,355,0.0,4.0,96,0.00,,CLR,0.74,0.00,VWS V14.00,2013-05-18 11:11:00,
2013-05-18 06:16:00,55.2,54.1,29.76,North,355,3.0,4.0,96,0.00,,CLR,0.74,7.00,VWS V14.00,2013-05-18 11:16:00,
2013-05-18 06:21:00,55.0,53.9,29.76,North,355,3.0,5.0,96,0.00,,CLR,0.74,11.00,VWS V14.00,2013-05-18 11:21:00,
2013-05-18 06:26:00,54.9,53.8,29.76,North,355,5.0,6.0,96,0.00,,CLR,0.74,14.00,VWS V14.00,2013-05-18 11:26:00,
2013-05-18 06:31:00,54.2,52.8,29.76,North,355,7.0,7.0,95,0.00,,CLR,0.74,18.00,VWS V14.00,2013-05-18 11:31:00,
2013-05-18 06:37:00,54.1,53.0,29.76,North,355,9.0,9.0,96,0.00,,CLR,0.74,19.00,VWS V14.00,2013-05-18 11:37:00,
2013-05-18 06:42:00,54.5,53.4,29.76,North,355,7.0,9.0,96,0.00,,CLR,0.74,28.00,VWS V14.00,2013-05-18 11:42:00,
2013-05-18 06:47:00,54.6,53.5,29.76,North,355,6.0,9.0,96,0.00,,CLR,0.74,32.00,VWS V14.00,2013-05-18 11:47:00,
2013-05-18 06:52:00,54.6,53.5,29.76,North,355,5.0,9.0,96,0.00,,CLR,0.74,35.00,VWS V14.00,2013-05-18 11:52:00,
2013-05-18 06:57:00,54.7,53.6,29.76,North,355,7.0,9.0,96,0.00,,CLR,0.74,39.00,VWS V14.00,2013-05-18 11:57:00,
2013-05-18 07:02:00,54.8,53.7,29.76,North,355,6.0,7.0,96,0.00,,CLR,0.74,44.00,VWS V14.00,2013-05-18 12:02:00,
2013-05-18 07:07:00,55.1,54.0,29.76,North,355,6.0,7.0,96,0.00,,CLR,0.74,49.00,VWS V14.00,2013-05-18 12:07:00,
2013-05-18 07:12:00,55.4,54.3,29.76,North,355,7.0,8.0,96,0.00,,CLR,0.74,54.00,VWS V14.00,2013-05-18 12:12:00,
2013-05-18 07:17:00,55.8,55.0,29.77,North,355,5.0,8.0,97,0.00,,CLR,0.74,51.00,VWS V14.00,2013-05-18 12:17:00,
2013-05-18 07:22:00,55.9,54.8,29.77,North,355,4.0,8.0,96,0.00,,CLR,0.74,46.00,VWS V14.00,2013-05-18 12:22:00,
2013-05-18 07:27:00,56.0,54.9,29.77,North,355,4.0,8.0,96,0.00,,CLR,0.74,49.00,VWS V14.00,2013-05-18 12:27:00,
2013-05-18 07:32:00,56.1,55.0,29.78,North,355,3.0,4.0,96,0.00,,CLR,0.74,60.00,VWS V14.00,2013-05-18 12:32:00,
2013-05-18 07:37:00,56.2,55.1,29.79,NNW,336,5.0,6.0,96,0.00,,CLR,0.74,77.00,VWS V14.00,2013-05-18 12:37:00,
2013-05-18 07:42:00,56.3,55.2,29.79,NNW,327,5.0,7.0,96,0.00,,CLR,0.74,91.00,VWS V14.00,2013-05-18 12:42:00,
2013-05-18 07:47:00,56.5,55.4,29.79,NNW,327,3.0,7.0,96,0.00,,CLR,0.74,102.00,VWS V14.00,2013-05-18 12:47:00,
2013-05-18 07:52:00,56.7,55.6,29.77,NNW,327,4.0,7.0,96,0.00,,CLR,0.74,120.00,VWS V14.00,2013-05-18 12:52:00,
2013-05-18 07:57:00,57.0,56.2,29.77,NNW,331,5.0,7.0,97,0.00,,CLR,0.74,128.00,VWS V14.00,2013-05-18 12:57:00,
2013-05-18 08:02:00,57.2,56.1,29.77,NNW,331,2.0,5.0,96,0.00,,CLR,0.74,132.00,VWS V14.00,2013-05-18 13:02:00,
2013-05-18 08:07:00,57.5,56.7,29.77,NNW,331,2.0,5.0,97,0.00,,CLR,0.74,137.00,VWS V14.00,2013-05-18 13:07:00,
2013-05-18 08:12:00,57.6,56.8,29.77,NNW,331,3.0,5.0,97,0.00,,CLR,0.74,141.00,VWS V14.00,2013-05-18 13:12:00,
2013-05-18 08:17:00,57.7,56.6,29.76,NNW,331,4.0,6.0,96,0.00,,CLR,0.74,149.00,VWS V14.00,2013-05-18 13:17:00,
2013-05-18 08:22:00,57.9,56.8,29.77,NNW,331,0.0,6.0,96,0.00,,CLR,0.74,174.00,VWS V14.00,2013-05-18 13:22:00,
2013-05-18 08:27:00,58.2,57.1,29.77,NNW,331,2.0,6.0,96,0.00,,CLR,0.74,195.00,VWS V14.00,2013-05-18 13:27:00,
2013-05-18 08:32:00,58.3,57.2,29.76,NNW,331,3.0,3.0,96,0.00,,CLR,0.74,186.00,VWS V14.00,2013-05-18 13:32:00,
2013-05-18 08:37:00,58.6,57.5,29.76,NE,38,7.0,7.0,96,0.00,,CLR,0.74,220.00,VWS V14.00,2013-05-18 13:37:00,
2013-05-18 08:42:00,58.8,57.7,29.77,ENE,71,5.0,8.0,96,0.00,,CLR,0.74,246.00,VWS V14.00,2013-05-18 13:42:00,
2013-05-18 08:47:00,59.0,57.6,29.77,ESE,105,7.0,9.0,95,0.00,,CLR,0.74,255.00,VWS V14.00,2013-05-18 13:47:00,
2013-05-18 08:52:00,59.3,57.9,29.77,ESE,119,3.0,10.0,95,0.00,,CLR,0.74,265.00,VWS V14.00,2013-05-18 13:52:00,
2013-05-18 08:57:00,59.4,58.0,29.77,SE,125,6.0,10.0,95,0.00,,CLR,0.74,297.00,VWS V14.00,2013-05-18 13:57:00,
2013-05-18 09:02:00,59.7,58.0,29.76,SE,125,6.0,8.0,94,0.00,,CLR,0.74,294.00,VWS V14.00,2013-05-18 14:02:00,
2013-05-18 09:07:00,59.9,58.2,29.77,SE,125,5.0,8.0,94,0.00,,CLR,0.74,244.00,VWS V14.00,2013-05-18 14:07:00,
2013-05-18 09:12:00,60.1,58.4,29.77,SE,125,7.0,9.0,94,0.00,,CLR,0.74,221.00,VWS V14.00,2013-05-18 14:12:00,
2013-05-18 09:17:00,60.1,58.1,29.77,SE,125,7.0,9.0,93,0.00,,CLR,0.74,204.00,VWS V14.00,2013-05-18 14:17:00,
2013-05-18 09:22:00,60.2,58.2,29.77,SE,128,7.0,9.0,93,0.00,,CLR,0.74,185.00,VWS V14.00,2013-05-18 14:22:00,
2013-05-18 09:27:00,60.1,57.8,29.77,SE,131,8.0,9.0,92,0.00,,CLR,0.74,178.00,VWS V14.00,2013-05-18 14:27:00,
2013-05-18 09:33:00,60.3,58.3,29.77,SE,131,4.0,6.0,93,0.00,,CLR,0.74,199.00,VWS V14.00,2013-05-18 14:33:00,
2013-05-18 09:38:00,60.5,58.5,29.77,SE,132,4.0,9.0,93,0.00,,CLR,0.74,292.00,VWS V14.00,2013-05-18 14:38:00,
2013-05-18 09:43:00,60.9,58.9,29.77,SE,132,4.0,9.0,93,0.00,,FEW008,0.74,374.00,VWS V14.00,2013-05-18 14:43:00,
2013-05-18 09:48:00,61.1,58.8,29.77,SE,132,4.0,9.0,92,0.00,,FEW008,0.74,341.00,VWS V14.00,2013-05-18 14:48:00,
2013-05-18 09:53:00,61.3,58.7,29.77,SE,132,6.0,9.0,91,0.00,,FEW008,0.74,288.00,VWS V14.00,2013-05-18 14:53:00,
2013-05-18 09:58:00,61.7,59.4,29.77,SE,132,5.0,9.0,92,0.00,,FEW008,0.74,494.00,VWS V14.00,2013-05-18 14:58:00,
2013-05-18 10:03:00,62.0,59.3,29.76,SE,132,4.0,7.0,91,0.00,,FEW008,0.74,397.00,VWS V14.00,2013-05-18 15:03:00,
2013-05-18 10:08:00,62.3,59.3,29.77,SE,132,5.0,7.0,90,0.00,,FEW008,0.74,527.00,VWS V14.00,2013-05-18 15:08:00,
2013-05-18 10:13:00,62.7,59.7,29.76,SE,132,2.0,7.0,90,0.00,,FEW008,0.74,512.00,VWS V14.00,2013-05-18 15:13:00,
2013-05-18 10:18:00,63.0,59.7,29.76,SE,132,2.0,7.0,89,0.00,,FEW008,0.74,397.00,VWS V14.00,2013-05-18 15:18:00,
2013-05-18 10:23:00,63.2,59.9,29.76,SE,132,3.0,7.0,89,0.00,,FEW008,0.74,504.00,VWS V14.00,2013-05-18 15:23:00,
2013-05-18 10:28:00,63.4,59.8,29.76,SE,132,4.0,7.0,88,0.00,,FEW008,0.74,512.00,VWS V14.00,2013-05-18 15:28:00,
2013-05-18 10:33:00,63.7,60.1,29.75,SE,132,4.0,5.0,88,0.00,,FEW008,0.74,603.00,VWS V14.00,2013-05-18 15:33:00,
2013-05-18 10:38:00,64.3,60.3,29.76,SE,132,3.0,6.0,87,0.00,,FEW008,0.74,591.00,VWS V14.00,2013-05-18 15:38:00,
2013-05-18 10:43:00,64.5,60.2,29.76,SE,132,5.0,7.0,86,0.00,,CLR,0.74,526.00,VWS V14.00,2013-05-18 15:43:00,
2013-05-18 10:48:00,64.9,60.3,29.76,SE,132,6.0,7.0,85,0.00,,CLR,0.74,580.00,VWS V14.00,2013-05-18 15:48:00,
2013-05-18 10:53:00,65.3,60.3,29.76,SE,132,2.0,7.0,84,0.00,,CLR,0.74,733.00,VWS V14.00,2013-05-18 15:53:00,
2013-05-18 10:58:00,65.8,58.8,29.76,SE,132,0.0,7.0,78,0.00,,CLR,0.74,601.00,VWS V14.00,2013-05-18 15:58:00,
2013-05-18 11:03:00,66.0,59.3,29.76,SE,132,3.0,6.0,79,0.00,,CLR,0.74,533.00,VWS V14.00,2013-05-18 16:03:00,
2013-05-18 11:08:00,66.2,59.9,29.75,SE,132,2.0,6.0,80,0.00,,CLR,0.74,635.00,VWS V14.00,2013-05-18 16:08:00,
2013-05-18 11:13:00,66.6,60.2,29.75,SE,132,3.0,6.0,80,0.00,,CLR,0.74,784.00,VWS V14.00,2013-05-18 16:13:00,
2013-05-18 11:18:00,66.9,58.7,29.75,SE,132,2.0,6.0,75,0.00,,CLR,0.74,355.00,VWS V14.00,2013-05-18 16:18:00,
2013-05-18 11:23:00,66.8,58.6,29.75,SE,132,2.0,6.0,75,0.00,,CLR,0.74,364.00,VWS V14.00,2013-05-18 16:23:00,
2013-05-18 11:28:00,66.9,59.5,29.75,SE,132,3.0,6.0,77,0.00,,CLR,0.74,443.00,VWS V14.00,2013-05-18 16:28:00,
2013-05-18 11:33:00,67.1,59.3,29.75,SE,132,1.0,5.0,76,0.00,,CLR,0.74,466.00,VWS V14.00,2013-05-18 16:33:00,
2013-05-18 11:38:00,67.4,59.2,29.76,SE,132,3.0,5.0,75,0.00,,CLR,0.74,411.00,VWS V14.00,2013-05-18 16:38:00,
2013-05-18 11:43:00,67.3,60.2,29.76,SE,132,3.0,6.0,78,0.00,,SCT080,0.74,359.00,VWS V14.00,2013-05-18 16:43:00,
2013-05-18 11:48:00,67.1,59.7,29.76,SE,132,4.0,9.0,77,0.00,,SCT080,0.74,367.00,VWS V14.00,2013-05-18 16:48:00,
2013-05-18 11:53:00,67.0,59.9,29.76,SE,132,3.0,9.0,78,0.00,,SCT080,0.74,371.00,VWS V14.00,2013-05-18 16:53:00,
2013-05-18 11:58:00,67.0,59.9,29.76,SE,132,4.0,9.0,78,0.00,,SCT080,0.74,338.00,VWS V14.00,2013-05-18 16:58:00,
2013-05-18 12:03:00,67.1,59.7,29.77,SE,132,5.0,7.0,77,0.00,,SCT080,0.74,401.00,VWS V14.00,2013-05-18 17:03:00,
2013-05-18 12:08:00,67.2,59.0,29.76,SE,132,4.0,8.0,75,0.00,,SCT080,0.74,524.00,VWS V14.00,2013-05-18 17:08:00,
2013-05-18 12:13:00,67.5,59.3,29.76,SE,132,4.0,8.0,75,0.00,,SCT080,0.74,494.00,VWS V14.00,2013-05-18 17:13:00,
2013-05-18 12:19:00,67.9,59.7,29.76,SE,132,6.0,8.0,75,0.00,,SCT080,0.74,568.00,VWS V14.00,2013-05-18 17:19:00,
2013-05-18 12:24:00,68.2,59.2,29.76,SE,132,6.0,8.0,73,0.00,,SCT080,0.74,698.00,VWS V14.00,2013-05-18 17:24:00,
2013-05-18 12:29:00,68.4,58.6,29.75,SE,132,3.0,8.0,71,0.00,,SCT080,0.74,652.00,VWS V14.00,2013-05-18 17:29:00,
2013-05-18 12:34:00,68.9,58.7,29.75,SE,132,1.0,3.0,70,0.00,,SCT080,0.74,782.00,VWS V14.00,2013-05-18 17:34:00,
2013-05-18 12:39:00,69.0,58.4,29.75,SSE,166,4.0,8.0,69,0.00,,SCT080,0.74,578.00,VWS V14.00,2013-05-18 17:39:00,
2013-05-18 12:44:00,68.8,57.0,29.75,South,185,2.0,8.0,66,0.00,,OVC090,0.74,601.00,VWS V14.00,2013-05-18 17:44:00,
2013-05-18 12:49:00,68.9,57.5,29.75,South,185,0.0,8.0,67,0.00,,OVC090,0.74,780.00,VWS V14.00,2013-05-18 17:49:00,
2013-05-18 12:54:00,69.5,58.9,29.75,South,185,2.0,8.0,69,0.00,,OVC090,0.74,668.00,VWS V14.00,2013-05-18 17:54:00,
2013-05-18 12:59:00,69.9,58.5,29.75,South,185,0.0,8.0,67,0.00,,OVC090,0.74,664.00,VWS V14.00,2013-05-18 17:59:00,
2013-05-18 13:04:00,70.1,59.5,29.75,SSW,193,6.0,8.0,69,0.00,,OVC090,0.74,585.00,VWS V14.00,2013-05-18 18:04:00,
2013-05-18 13:09:00,70.1,58.7,29.75,SSW,194,4.0,8.0,67,0.00,,OVC090,0.74,585.00,VWS V14.00,2013-05-18 18:09:00,
2013-05-18 13:14:00,70.2,58.7,29.75,SSW,195,4.0,8.0,67,0.00,,OVC090,0.74,564.00,VWS V14.00,2013-05-18 18:14:00,
2013-05-18 13:19:00,69.9,59.3,29.75,SSW,195,3.0,8.0,69,0.00,,OVC090,0.74,615.00,VWS V14.00,2013-05-18 18:19:00,
2013-05-18 13:24:00,70.2,58.7,29.75,SSW,195,4.0,8.0,67,0.00,,OVC090,0.74,942.00,VWS V14.00,2013-05-18 18:24:00,
2013-05-18 13:29:00,70.7,58.4,29.75,WSW,244,7.0,9.0,65,0.00,,OVC090,0.74,814.00,VWS V14.00,2013-05-18 18:29:00,
2013-05-18 13:34:00,70.7,57.1,29.74,WSW,244,0.0,4.0,62,0.00,,OVC090,0.74,847.00,VWS V14.00,2013-05-18 18:34:00,
2013-05-18 13:39:00,71.2,58.4,29.74,WSW,244,5.0,8.0,64,0.00,,OVC090,0.74,814.00,VWS V14.00,2013-05-18 18:39:00,
2013-05-18 13:44:00,71.4,57.7,29.74,WSW,244,3.0,8.0,62,0.00,,FEW090,0.74,624.00,VWS V14.00,2013-05-18 18:44:00,
2013-05-18 13:49:00,71.3,56.7,29.74,WSW,238,4.0,10.0,60,0.00,,FEW090,0.74,512.00,VWS V14.00,2013-05-18 18:49:00,
2013-05-18 13:54:00,71.2,56.6,29.74,WSW,238,3.0,10.0,60,0.00,,FEW090,0.74,538.00,VWS V14.00,2013-05-18 18:54:00,
2013-05-18 13:59:00,71.8,58.1,29.74,WSW,238,1.0,10.0,62,0.00,,FEW090,0.74,854.00,VWS V14.00,2013-05-18 18:59:00,
2013-05-18 14:04:00,72.6,58.8,29.74,WSW,238,5.0,7.0,62,0.00,,FEW090,0.74,889.00,VWS V14.00,2013-05-18 19:04:00,
2013-05-18 14:09:00,72.4,55.8,29.74,WSW,238,3.0,9.0,56,0.00,,FEW090,0.74,875.00,VWS V14.00,2013-05-18 19:09:00,
2013-05-18 14:14:00,72.4,56.8,29.74,WSW,238,2.0,9.0,58,0.00,,FEW090,0.74,932.00,VWS V14.00,2013-05-18 19:14:00,
2013-05-18 14:19:00,72.6,57.9,29.74,WSW,238,2.0,9.0,60,0.00,,FEW090,0.74,919.00,VWS V14.00,2013-05-18 19:19:00,
2013-05-18 14:24:00,73.0,60.5,29.74,WSW,252,5.0,9.0,65,0.00,,FEW090,0.74,997.00,VWS V14.00,2013-05-18 19:24:00,
2013-05-18 14:29:00,73.0,57.4,29.74,WSW,251,4.0,9.0,58,0.00,,FEW090,0.74,1039.00,VWS V14.00,2013-05-18 19:29:00,
2013-05-18 14:34:00,73.1,58.4,29.74,WSW,251,3.0,6.0,60,0.00,,FEW090,0.74,1039.00,VWS V14.00,2013-05-18 19:34:00,
2013-05-18 14:39:00,72.9,58.7,29.74,WSW,251,4.0,8.0,61,0.00,,FEW090,0.74,457.00,VWS V14.00,2013-05-18 19:39:00,
2013-05-18 14:44:00,73.1,57.9,29.73,WSW,252,3.0,8.0,59,0.00,,CLR,0.74,1255.00,VWS V14.00,2013-05-18 19:44:00,
2013-05-18 14:49:00,73.1,57.0,29.73,WSW,252,3.0,8.0,57,0.00,,CLR,0.74,1063.00,VWS V14.00,2013-05-18 19:49:00,
2013-05-18 14:54:00,73.3,56.7,29.73,WSW,251,0.0,8.0,56,0.00,,CLR,0.74,881.00,VWS V14.00,2013-05-18 19:54:00,
2013-05-18 14:59:00,73.9,57.7,29.73,WSW,258,2.0,8.0,57,0.00,,CLR,0.74,919.00,VWS V14.00,2013-05-18 19:59:00,
2013-05-18 15:04:00,73.9,59.2,29.73,WSW,258,2.0,7.0,60,0.00,,CLR,0.74,898.00,VWS V14.00,2013-05-18 20:04:00,
2013-05-18 15:09:00,74.0,58.8,29.73,West,259,3.0,7.0,59,0.00,,CLR,0.74,902.00,VWS V14.00,2013-05-18 20:09:00,
2013-05-18 15:14:00,74.2,55.5,29.73,West,259,4.0,7.0,52,0.00,,CLR,0.74,921.00,VWS V14.00,2013-05-18 20:14:00,
2013-05-18 15:20:00,74.0,55.3,29.72,West,259,5.0,7.0,52,0.00,,CLR,0.74,912.00,VWS V14.00,2013-05-18 20:20:00,
2013-05-18 15:25:00,74.4,56.7,29.72,West,259,5.0,7.0,54,0.00,,CLR,0.74,842.00,VWS V14.00,2013-05-18 20:25:00,
2013-05-18 15:30:00,74.0,56.3,29.72,West,259,1.0,7.0,54,0.00,,CLR,0.74,276.00,VWS V14.00,2013-05-18 20:30:00,
2013-05-18 15:35:00,74.2,58.0,29.72,West,259,1.0,3.0,57,0.00,,CLR,0.74,362.00,VWS V14.00,2013-05-18 20:35:00,
2013-05-18 15:40:00,74.2,58.0,29.72,WSW,254,4.0,6.0,57,0.00,,CLR,0.74,394.00,VWS V14.00,2013-05-18 20:40:00,
2013-05-18 15:45:00,74.4,58.2,29.72,WSW,254,2.0,6.0,57,0.00,,SCT090,0.74,373.00,VWS V14.00,2013-05-18 20:45:00,
2013-05-18 15:50:00,74.2,57.5,29.72,WSW,254,0.0,6.0,56,0.00,,SCT090,0.74,255.00,VWS V14.00,2013-05-18 20:50:00,
2013-05-18 15:55:00,74.2,56.5,29.72,WSW,254,0.0,6.0,54,0.00,,SCT090,0.74,287.00,VWS V14.00,2013-05-18 20:55:00,
2013-05-18 16:00:00,74.0,58.8,29.72,WSW,254,3.0,6.0,59,0.00,,SCT090,0.74,195.00,VWS V14.00,2013-05-18 21:00:00,
2013-05-18 16:05:00,73.9,56.7,29.72,WSW,254,0.0,2.0,55,0.00,,SCT090,0.74,239.00,VWS V14.00,2013-05-18 21:05:00,
2013-05-18 16:10:00,73.8,58.6,29.73,WSW,254,2.0,2.0,59,0.00,,SCT090,0.74,206.00,VWS V14.00,2013-05-18 21:10:00,
2013-05-18 16:15:00,73.6,57.0,29.73,WSW,254,3.0,6.0,56,0.00,,SCT090,0.74,199.00,VWS V14.00,2013-05-18 21:15:00,
2013-05-18 16:20:00,73.4,57.3,29.73,WSW,254,2.0,6.0,57,0.00,,SCT090,0.74,186.00,VWS V14.00,2013-05-18 21:20:00,
2013-05-18 16:25:00,73.3,56.7,29.73,WSW,254,2.0,6.0,56,0.00,,SCT090,0.74,197.00,VWS V14.00,2013-05-18 21:25:00,
2013-05-18 16:30:00,73.2,59.0,29.72,WSW,254,0.0,6.0,61,0.00,,SCT090,0.74,290.00,VWS V14.00,2013-05-18 21:30:00,
2013-05-18 16:35:00,73.3,58.1,29.72,WSW,254,2.0,2.0,59,0.00,,SCT090,0.74,195.00,VWS V14.00,2013-05-18 21:35:00,
2013-05-18 16:40:00,73.2,57.5,29.72,WSW,254,2.0,3.0,58,0.00,,SCT090,0.74,202.00,VWS V14.00,2013-05-18 21:40:00,
2013-05-18 16:45:00,73.2,58.0,29.72,WSW,254,2.0,3.0,59,0.00,,BKN095,0.74,239.00,VWS V14.00,2013-05-18 21:45:00,
2013-05-18 16:50:00,73.2,57.5,29.72,WSW,254,4.0,5.0,58,0.00,,BKN095,0.74,272.00,VWS V14.00,2013-05-18 21:50:00,
2013-05-18 16:55:00,73.1,57.9,29.72,WSW,254,4.0,5.0,59,0.00,,BKN095,0.74,251.00,VWS V14.00,2013-05-18 21:55:00,
2013-05-18 17:00:00,73.0,56.9,29.72,WSW,254,3.0,5.0,57,0.00,,BKN095,0.74,195.00,VWS V14.00,2013-05-18 22:00:00,
2013-05-18 17:05:00,73.0,57.8,29.72,WSW,254,2.0,4.0,59,0.00,,BKN095,0.74,216.00,VWS V14.00,2013-05-18 22:05:00,
2013-05-18 17:10:00,72.9,56.8,29.72,WSW,254,0.0,4.0,57,0.00,,BKN095,0.74,158.00,VWS V14.00,2013-05-18 22:10:00,
2013-05-18 17:15:00,72.9,58.2,29.72,WSW,254,1.0,4.0,60,0.00,,BKN095,0.74,171.00,VWS V14.00,2013-05-18 22:15:00,
2013-05-18 17:20:00,72.9,58.2,29.72,WSW,254,3.0,5.0,60,0.00,,BKN095,0.74,146.00,VWS V14.00,2013-05-18 22:20:00,
2013-05-18 17:25:00,72.9,58.7,29.72,WSW,254,5.0,6.0,61,0.00,,BKN095,0.74,149.00,VWS V14.00,2013-05-18 22:25:00,
2013-05-18 17:30:00,72.6,57.5,29.72,WSW,254,4.0,4.0,59,0.00,,BKN095,0.74,139.00,VWS V14.00,2013-05-18 22:30:00,
2013-05-18 17:35:00,72.4,57.8,29.72,WSW,254,4.0,5.0,60,0.00,,BKN095,0.74,142.00,VWS V14.00,2013-05-18 22:35:00,
2013-05-18 17:40:00,72.3,58.6,29.71,WSW,254,3.0,7.0,62,0.00,,BKN095,0.74,70.00,VWS V14.00,2013-05-18 22:40:00,
2013-05-18 17:45:00,72.2,58.9,29.71,West,279,7.0,9.0,63,0.00,,OVC085,0.74,25.00,VWS V14.00,2013-05-18 22:45:00,
2013-05-18 17:50:00,71.8,59.8,29.72,WNW,282,5.0,9.0,66,0.00,,OVC085,0.74,12.00,VWS V14.00,2013-05-18 22:50:00,
2013-05-18 17:55:00,71.1,60.0,29.72,WNW,282,6.0,9.0,68,0.00,,OVC085,0.74,9.00,VWS V14.00,2013-05-18 22:55:00,
2013-05-18 18:00:00,70.3,59.7,29.73,WNW,282,8.0,8.0,69,0.00,,OVC085,0.74,7.00,VWS V14.00,2013-05-18 23:00:00,
2013-05-18 18:05:00,69.8,60.0,29.73,NW,317,13.0,15.0,71,0.01,,OVC085,0.75,9.00,VWS V14.00,2013-05-18 23:05:00,
2013-05-18 18:10:00,64.8,58.5,29.73,NW,316,12.0,25.0,80,0.17,,OVC085,0.91,16.00,VWS V14.00,2013-05-18 23:10:00,
2013-05-18 18:15:00,63.4,58.5,29.72,NNW,331,9.0,25.0,84,0.29,,OVC085,1.03,18.00,VWS V14.00,2013-05-18 23:15:00,
2013-05-18 18:20:00,62.7,58.8,29.72,NE,38,11.0,25.0,87,0.35,,OVC085,1.09,12.00,VWS V14.00,2013-05-18 23:20:00,
2013-05-18 18:26:00,62.5,58.9,29.72,NE,47,9.0,25.0,88,0.36,,OVC085,1.10,11.00,VWS V14.00,2013-05-18 23:26:00,
2013-05-18 18:31:00,62.8,58.9,29.71,NE,53,12.0,12.0,87,0.37,,OVC085,1.11,12.00,VWS V14.00,2013-05-18 23:31:00,
2013-05-18 18:36:00,63.0,59.4,29.72,NE,49,11.0,14.0,88,0.38,,OVC085,1.12,12.00,VWS V14.00,2013-05-18 23:36:00,
2013-05-18 18:41:00,62.9,59.6,29.72,NE,49,6.0,14.0,89,0.38,,OVC085,1.12,9.00,VWS V14.00,2013-05-18 23:41:00,
2013-05-18 18:46:00,62.8,59.5,29.72,NE,41,6.0,14.0,89,0.38,,OVC065,1.12,11.00,VWS V14.00,2013-05-18 23:46:00,
2013-05-18 18:51:00,62.7,59.4,29.73,NE,41,1.0,14.0,89,0.40,,OVC065,1.14,7.00,VWS V14.00,2013-05-18 23:51:00,
2013-05-18 18:56:00,62.7,59.7,29.74,NE,41,1.0,14.0,90,0.41,,OVC065,1.15,7.00,VWS V14.00,2013-05-18 23:56:00,
2013-05-18 19:01:00,62.6,59.6,29.72,NE,41,6.0,6.0,90,0.45,,OVC065,1.19,14.00,VWS V14.00,2013-05-19 00:01:00,
2013-05-18 19:06:00,62.6,59.9,29.71,NE,41,8.0,9.0,91,0.48,,OVC065,1.22,18.00,VWS V14.00,2013-05-19 00:06:00,
2013-05-18 19:11:00,62.6,59.6,29.70,NE,53,6.0,11.0,90,0.48,,OVC065,1.22,11.00,VWS V14.00,2013-05-19 00:11:00,
2013-05-18 19:16:00,62.4,59.4,29.71,ENE,61,4.0,11.0,90,0.48,,OVC065,1.22,7.00,VWS V14.00,2013-05-19 00:16:00,
2013-05-18 19:21:00,62.4,59.4,29.72,ENE,61,4.0,11.0,90,0.48,,OVC065,1.22,5.00,VWS V14.00,2013-05-19 00:21:00,
2013-05-18 19:26:00,62.4,59.1,29.73,ENE,61,2.0,11.0,89,0.50,,OVC065,1.24,0.00,VWS V14.00,2013-05-19 00:26:00,
2013-05-18 19:31:00,62.3,59.3,29.73,ENE,61,5.0,5.0,90,0.15,,OVC065,1.26,0.00,VWS V14.00,2013-05-19 00:31:00,
2013-05-18 19:36:00,61.9,58.9,29.74,NE,53,3.0,7.0,90,0.16,,OVC065,1.27,0.00,VWS V14.00,2013-05-19 00:36:00,
2013-05-18 19:41:00,61.8,59.5,29.76,ENE,77,7.0,9.0,92,0.19,,OVC075,1.30,0.00,VWS V14.00,2013-05-19 00:41:00,
2013-05-18 19:46:00,61.8,59.5,29.76,South,171,7.0,10.0,92,0.20,,OVC075,1.31,0.00,VWS V14.00,2013-05-19 00:46:00,
2013-05-18 19:51:00,61.7,59.4,29.75,South,173,4.0,10.0,92,0.21,,OVC075,1.32,0.00,VWS V14.00,2013-05-19 00:51:00,
2013-05-18 19:56:00,61.4,59.4,29.75,South,173,5.0,10.0,93,0.24,,OVC075,1.35,0.00,VWS V14.00,2013-05-19 00:56:00,
2013-05-18 20:01:00,61.3,59.3,29.75,South,173,5.0,6.0,93,0.19,,OVC075,1.37,0.00,VWS V14.00,2013-05-19 01:01:00,
2013-05-18 20:06:00,61.2,59.2,29.75,South,173,1.0,6.0,93,0.21,,OVC075,1.39,0.00,VWS V14.00,2013-05-19 01:06:00,
2013-05-18 20:11:00,61.1,59.1,29.75,South,173,2.0,6.0,93,0.23,,OVC075,1.41,0.00,VWS V14.00,2013-05-19 01:11:00,
2013-05-18 20:16:00,61.0,59.3,29.75,South,173,6.0,6.0,94,0.24,,OVC075,1.42,0.00,VWS V14.00,2013-05-19 01:16:00,
2013-05-18 20:21:00,60.9,59.2,29.75,ESE,103,8.0,9.0,94,0.26,,OVC075,1.44,0.00,VWS V14.00,2013-05-19 01:21:00,
2013-05-18 20:26:00,60.9,59.2,29.73,NNE,19,9.0,10.0,94,0.28,,OVC075,1.46,0.00,VWS V14.00,2013-05-19 01:26:00,
2013-05-18 20:31:00,60.4,58.7,29.72,North,10,15.0,19.0,94,0.22,,-RA,1.48,0.00,VWS V14.00,2013-05-19 01:31:00,
2013-05-18 20:36:00,59.8,58.1,29.70,NNE,23,19.0,21.0,94,0.24,,-RA,1.50,5.00,VWS V14.00,2013-05-19 01:36:00,
2013-05-18 20:41:00,59.8,58.1,29.70,NE,37,15.0,23.0,94,0.25,,-RA,1.51,11.00,VWS V14.00,2013-05-19 01:41:00,
2013-05-18 20:46:00,59.9,58.2,29.68,NE,53,11.0,23.0,94,0.26,,-RA,1.52,5.00,VWS V14.00,2013-05-19 01:46:00,
2013-05-18 20:51:00,59.9,58.2,29.68,ENE,67,13.0,23.0,94,0.27,,-RA,1.53,0.00,VWS V14.00,2013-05-19 01:51:00,
2013-05-18 20:56:00,60.1,58.4,29.71,East,85,6.0,23.0,94,0.27,,-RA,1.53,0.00,VWS V14.00,2013-05-19 01:56:00,
2013-05-18 21:01:00,60.4,58.4,29.72,East,80,7.0,8.0,93,0.17,,-RA,1.53,0.00,VWS V14.00,2013-05-19 02:01:00,
2013-05-18 21:06:00,60.5,58.5,29.72,ENE,75,5.0,10.0,93,0.17,,-RA,1.53,0.00,VWS V14.00,2013-05-19 02:06:00,
2013-05-18 21:11:00,60.5,58.5,29.73,East,82,10.0,10.0,93,0.17,,-RA,1.53,0.00,VWS V14.00,2013-05-19 02:11:00,
2013-05-18 21:16:00,60.5,58.5,29.73,East,101,11.0,11.0,93,0.17,,-RA,1.53,0.00,VWS V14.00,2013-05-19 02:16:00,
2013-05-18 21:21:00,60.3,58.3,29.73,East,95,10.0,12.0,93,0.17,,-RA,1.53,0.00,VWS V14.00,2013-05-19 02:21:00,
2013-05-18 21:26:00,60.1,58.1,29.73,East,97,13.0,15.0,93,0.18,,-RA,1.54,0.00,VWS V14.00,2013-05-19 02:26:00,
2013-05-18 21:31:00,60.0,58.0,29.73,ESE,103,12.0,12.0,93,0.07,,-RA,1.54,0.00,VWS V14.00,2013-05-19 02:31:00,
2013-05-18 21:37:00,59.7,57.7,29.74,ESE,105,11.0,14.0,93,0.07,,-RA,1.54,0.00,VWS V14.00,2013-05-19 02:37:00,
2013-05-18 21:42:00,59.6,57.6,29.73,East,87,13.0,16.0,93,0.07,,RA,1.54,0.00,VWS V14.00,2013-05-19 02:42:00,
2013-05-18 21:47:00,59.2,56.9,29.73,ESE,102,11.0,17.0,92,0.08,,RA,1.55,0.00,VWS V14.00,2013-05-19 02:47:00,
2013-05-18 21:52:00,58.9,56.9,29.73,SE,136,8.0,17.0,93,0.08,,RA,1.55,0.00,VWS V14.00,2013-05-19 02:52:00,
2013-05-18 21:57:00,58.4,56.4,29.74,SE,129,9.0,17.0,93,0.08,,RA,1.55,0.00,VWS V14.00,2013-05-19 02:57:00,
2013-05-18 22:02:00,58.1,56.1,29.75,SE,140,15.0,15.0,93,0.02,,RA,1.55,0.00,VWS V14.00,2013-05-19 03:02:00,
2013-05-18 22:07:00,57.6,55.6,29.75,SE,129,10.0,16.0,93,0.02,,RA,1.55,0.00,VWS V14.00,2013-05-19 03:07:00,
2013-05-18 22:12:00,57.2,55.2,29.75,SE,126,11.0,18.0,93,0.02,,RA,1.55,0.00,VWS V14.00,2013-05-19 03:12:00,
2013-05-18 22:17:00,56.9,55.2,29.76,SE,138,13.0,18.0,94,0.02,,RA,1.55,0.00,VWS V14.00,2013-05-19 03:17:00,
2013-05-18 22:22:00,56.8,55.1,29.75,SE,128,14.0,20.0,94,0.02,,RA,1.55,0.00,VWS V14.00,2013-05-19 03:22:00,
2013-05-18 22:27:00,56.6,54.9,29.75,ESE,116,15.0,20.0,94,0.02,,RA,1.55,0.00,VWS V14.00,2013-05-19 03:27:00,
2013-05-18 22:32:00,56.6,54.9,29.75,ESE,113,12.0,14.0,94,0.01,,RA,1.55,0.00,VWS V14.00,2013-05-19 03:32:00,
2013-05-18 22:37:00,56.7,55.3,29.74,ESE,117,9.0,16.0,95,0.01,,RA,1.55,0.00,VWS V14.00,2013-05-19 03:37:00,
2013-05-18 22:42:00,56.8,55.4,29.74,ESE,107,12.0,16.0,95,0.01,,-RA,1.55,0.00,VWS V14.00,2013-05-19 03:42:00,
2013-05-18 22:47:00,56.9,55.5,29.74,ESE,102,13.0,16.0,95,0.01,,-RA,1.55,0.00,VWS V14.00,2013-05-19 03:47:00,
2013-05-18 22:52:00,57.1,55.7,29.73,ESE,109,12.0,19.0,95,0.01,,-RA,1.55,0.00,VWS V14.00,2013-05-19 03:52:00,
2013-05-18 22:57:00,57.3,55.9,29.73,East,101,24.0,24.0,95,0.01,,-RA,1.55,0.00,VWS V14.00,2013-05-19 03:57:00,
2013-05-18 23:01:00,57.5,56.1,29.73,ESE,110,17.0,17.0,95,0.00,,-RA,1.55,0.00,VWS V14.00,2013-05-19 04:01:00,
2013-05-18 23:02:00,57.5,56.1,29.73,ESE,113,15.0,21.0,95,0.00,,-RA,1.55,0.00,VWS V14.00,2013-05-19 04:02:00,
2013-05-18 23:06:00,57.7,56.3,29.73,ESE,105,12.0,23.0,95,0.00,,-RA,1.55,0.00,VWS V14.00,2013-05-19 04:06:00,
2013-05-18 23:09:00,57.8,56.7,29.73,ESE,113,15.0,23.0,96,0.00,,-RA,1.55,0.00,VWS V14.00,2013-05-19 04:09:00,
2013-05-18 23:10:00,57.8,56.7,29.73,ESE,108,17.0,23.0,96,0.00,,-RA,1.55,0.00,VWS V14.00,2013-05-19 04:10:00,
2013-05-18 23:15:00,58.1,57.0,29.73,East,95,16.0,24.0,96,0.00,,-RA,1.55,0.00,VWS V14.00,2013-05-19 04:15:00,
2013-05-18 23:20:00,58.4,57.3,29.73,ESE,117,17.0,25.0,96,0.00,,-RA,1.55,0.00,VWS V14.00,2013-05-19 04:20:00,
2013-05-18 23:25:00,58.5,57.4,29.73,ESE,109,11.0,25.0,96,0.00,,-RA,1.55,0.00,VWS V14.00,2013-05-19 04:25:00,
2013-05-18 23:30:00,58.6,57.5,29.72,ESE,103,14.0,25.0,96,0.00,,-RA,1.55,0.00,VWS V14.00,2013-05-19 04:30:00,
2013-05-18 23:35:00,58.7,57.6,29.72,ESE,105,17.0,20.0,96,0.00,,-RA,1.55,0.00,VWS V14.00,2013-05-19 04:35:00,
2013-05-18 23:40:00,58.8,57.7,29.72,ESE,105,13.0,20.0,96,0.00,,-RA,1.55,0.00,VWS V14.00,2013-05-19 04:40:00,
2013-05-18 23:45:00,58.8,57.4,29.71,East,88,15.0,20.0,95,0.00,,CLR,1.55,0.00,VWS V14.00,2013-05-19 04:45:00,
2013-05-18 23:50:00,59.0,57.6,29.71,East,79,13.0,20.0,95,0.00,,CLR,1.55,0.00,VWS V14.00,2013-05-19 04:50:00,
2013-05-18 23:55:00,59.0,57.6,29.70,ENE,77,12.0,20.0,95,0.00,,CLR,1.55,0.00,VWS V14.00,2013-05-19 04:55:00,